H1 CPF 2 NER 2025 8 27 9 239 01 glonass138 H2 1805301 9138 43508 2025 8 27 0 0 0 2025 8 30 23 45 0 900 1 1 0 0 0 1 H9 10 0 60914 0.00000 0 -6972839.309 -10956657.473 21952948.567 10 0 60914 900.00000 0 -6300602.031 -13504355.938 20698763.330 10 0 60914 1800.00000 0 -5859156.423 -15920639.910 19042439.814 10 0 60914 2700.00000 0 -5633546.016 -18139464.026 17016059.749 10 0 60914 3600.00000 0 -5597240.156 -20100480.870 14658917.250 10 0 60914 4500.00000 0 -5713437.815 -21751398.691 12016761.769 10 0 60914 5400.00000 0 -5936816.738 -23050018.142 9140912.889 10 0 60914 6300.00000 0 -6215653.909 -23965862.529 6087263.692 10 0 60914 7200.00000 0 -6494227.270 -24481332.793 2915192.008 10 0 60914 8100.00000 0 -6715396.416 -24592338.391 -313599.039 10 0 60914 9000.00000 0 -6823252.056 -24308377.324 -3536288.075 10 0 60914 9900.00000 0 -6765720.888 -23652061.892 -6690165.756 10 0 60914 10800.00000 0 -6497014.263 -22658110.395 -9713863.349 10 0 60914 11700.00000 0 -5979815.606 -21371847.661 -12548554.702 10 0 60914 12600.00000 0 -5187112.721 -19847278.272 -15139107.240 10 0 60914 13500.00000 0 -4103596.330 -18144814.349 -17435158.855 10 0 60914 14400.00000 0 -2726564.715 -16328754.287 -19392099.317 10 0 60914 15300.00000 0 -1066295.456 -14464619.095 -20971936.935 10 0 60914 16200.00000 0 854132.117 -12616458.670 -22144033.830 10 0 60914 17100.00000 0 2999556.936 -10844241.084 -22885695.970 10 0 60914 18000.00000 0 5323968.987 -9201434.161 -23182607.166 10 0 60914 18900.00000 0 7772203.807 -7732879.930 -23029099.337 10 0 60914 19800.00000 0 10282028.381 -6473050.008 -22428254.586 10 0 60914 20700.00000 0 12786531.901 -5444753.643 -21391837.761 10 0 60914 21600.00000 0 15216722.295 -4658351.018 -19940061.386 10 0 60914 22500.00000 0 17504220.973 -4111503.173 -18101187.871 10 0 60914 23400.00000 0 19583944.172 -3789467.450 -15910976.931 10 0 60914 24300.00000 0 21396659.924 -3665924.551 -13411988.978 10 0 60914 25200.00000 0 22891314.800 -3704301.149 -10652757.915 10 0 60914 26100.00000 0 24027034.113 -3859531.309 -7686849.275 10 0 60914 27000.00000 0 24774712.843 -4080181.667 -4571821.805 10 0 60914 27900.00000 0 25118131.530 -4310850.135 -1368112.490 10 0 60914 28800.00000 0 25054551.142 -4494736.491 1862133.443 10 0 60914 29700.00000 0 24594762.630 -4576276.032 5056264.944 10 0 60914 30600.00000 0 23762589.591 -4503724.877 8152336.774 10 0 60914 31500.00000 0 22593865.258 -4231587.571 11090306.923 10 0 60914 32400.00000 0 21134926.870 -3722784.279 13813196.799 10 0 60914 33300.00000 0 19440690.514 -2950465.795 16268191.943 10 0 60914 34200.00000 0 17572386.897 -1899399.324 18407662.267 10 0 60914 35100.00000 0 15595052.456 -566865.938 20190082.464 10 0 60914 36000.00000 0 13574880.183 1036969.136 21580835.205 10 0 60914 36900.00000 0 11576540.269 2889230.222 22552881.978 10 0 60914 37800.00000 0 9660581.768 4955043.275 23087288.914 10 0 60914 38700.00000 0 7881022.989 7188758.290 23173597.572 10 0 60914 39600.00000 0 6283230.543 9535632.842 22810033.461 10 0 60914 40500.00000 0 4902174.967 11933908.298 22003547.952 10 0 60914 41400.00000 0 3761135.279 14317193.813 20769692.218 10 0 60914 42300.00000 0 2870906.259 16617060.058 19132324.885 10 0 60914 43200.00000 0 2229541.371 18765735.588 17123158.143 10 0 60914 44100.00000 0 1822641.875 20698793.999 14781150.160 10 0 60914 45000.00000 0 1624179.828 22357719.868 12151754.715 10 0 60914 45900.00000 0 1597820.102 23692246.070 9286041.891 10 0 60914 46800.00000 0 1698685.331 24662364.239 6239706.440 10 0 60914 47700.00000 0 1875488.791 25239923.446 3071983.032 10 0 60914 48600.00000 0 2072944.273 25409749.412 -155510.319 10 0 60914 49500.00000 0 2234350.070 25170236.600 -3379977.589 10 0 60914 50400.00000 0 2304236.468 24533387.927 -6538674.500 10 0 60914 51300.00000 0 2230963.367 23524300.249 -9570137.828 10 0 60914 52200.00000 0 1969156.636 22180117.397 -12415389.286 10 0 60914 53100.00000 0 1481878.770 20548495.178 -15019089.606 10 0 60914 54000.00000 0 742440.789 18685643.449 -17330619.600 10 0 60914 54900.00000 0 -264222.251 16654028.174 -19305066.734 10 0 60914 55800.00000 0 -1540671.081 14519830.554 -20904097.821 10 0 60914 56700.00000 0 -3076615.191 12350270.259 -22096701.054 10 0 60914 57600.00000 0 -4849114.137 10210905.072 -22859783.399 10 0 60914 58500.00000 0 -6823319.217 8163019.865 -23178612.365 10 0 60914 59400.00000 0 -8953724.860 6261213.561 -23047094.347 10 0 60914 60300.00000 0 -11185877.778 4551284.026 -22467884.897 10 0 60914 61200.00000 0 -13458472.848 3068498.065 -21452329.492 10 0 60914 62100.00000 0 -15705748.694 1836317.288 -20020236.509 10 0 60914 63000.00000 0 -17860083.495 865631.421 -18199487.187 10 0 60914 63900.00000 0 -19854683.274 154529.394 -16025490.373 10 0 60914 64800.00000 0 -21626251.053 -311383.958 -13540492.674 10 0 60914 65700.00000 0 -23117526.116 -558140.484 -10792757.294 10 0 60914 66600.00000 0 -24279587.845 -622067.631 -7835627.400 10 0 60914 67500.00000 0 -25073828.470 -548011.285 -4726491.992 10 0 60914 68400.00000 0 -25473512.727 -387198.338 -1525674.197 10 0 60914 69300.00000 0 -25464859.619 -194829.813 1704736.552 10 0 60914 70200.00000 0 -25047601.390 -27506.582 4902085.885 10 0 60914 71100.00000 0 -24234996.574 59403.300 8004366.213 10 0 60914 72000.00000 0 -23053296.773 14344.260 10951415.381 10 0 60914 72900.00000 0 -21540689.517 -208009.218 13686079.175 10 0 60914 73800.00000 0 -19745761.352 -644599.394 16155315.424 10 0 60914 74700.00000 0 -17725545.171 -1322187.544 18311218.607 10 0 60914 75600.00000 0 -15543232.966 -2255988.033 20111945.529 10 0 60914 76500.00000 0 -13265648.915 -3448792.412 21522524.596 10 0 60914 77400.00000 0 -10960587.545 -4890621.427 22515533.421 10 0 60914 78300.00000 0 -8694127.154 -6558920.894 23071631.999 10 0 60914 79200.00000 0 -6528029.588 -8419294.795 23179941.273 10 0 60914 80100.00000 0 -4517333.945 -10426746.674 22838259.749 10 0 60914 81000.00000 0 -2708243.666 -12527379.182 22053113.650 10 0 60914 81900.00000 0 -1136394.457 -14660482.507 20839639.107 10 0 60914 82800.00000 0 174425.221 -16760925.920 19221297.888 10 0 60914 83700.00000 0 1213048.078 -18761753.738 17229431.290 10 0 60914 84600.00000 0 1981164.328 -20596878.040 14902659.871 10 0 60914 85500.00000 0 2493010.820 -22203755.859 12286139.768 10 0 60915 0.00000 0 2774526.372 -23525938.652 9430689.595 10 0 60915 900.00000 0 2862009.406 -24515387.451 6391802.823 10 0 60915 1800.00000 0 2800334.714 -25134454.160 3228568.601 10 0 60915 2700.00000 0 2640805.920 -25357447.339 2517.125 10 0 60915 3600.00000 0 2438734.962 -25171713.950 -3223583.684 10 0 60915 4500.00000 0 2250852.355 -24578191.584 -6386957.407 10 0 60915 5400.00000 0 2132659.122 -23591407.270 -9426049.102 10 0 60915 6300.00000 0 2135833.875 -22238922.615 -12281731.093 10 0 60915 7200.00000 0 2305806.125 -20560248.646 -14898460.074 10 0 60915 8100.00000 0 2679599.735 -18605276.184 -17225362.297 10 0 60915 9000.00000 0 3284038.743 -16432288.081 -19217225.221 10 0 60915 9900.00000 0 4134392.181 -14105637.167 -20835376.166 10 0 60915 10800.00000 0 5233515.709 -11693187.610 -22048431.029 10 0 60915 11700.00000 0 6571526.723 -9263626.939 -22832898.974 10 0 60915 12600.00000 0 8126026.956 -6883761.074 -23173631.961 10 0 60915 13500.00000 0 9862863.519 -4615904.909 -23064111.150 10 0 60915 14400.00000 0 11737396.776 -2515476.565 -22506565.404 10 0 60915 15300.00000 0 13696222.214 -628894.588 -21511920.282 10 0 60915 16200.00000 0 15679274.596 1008135.627 -20099579.084 10 0 60915 17100.00000 0 17622226.826 2371876.319 -18297040.592 10 0 60915 18000.00000 0 19459083.607 3451302.163 -16139361.140 10 0 60915 18900.00000 0 21124861.981 4248306.065 -13668471.510 10 0 60915 19800.00000 0 22558247.114 4777359.190 -10932361.825 10 0 60915 20700.00000 0 23704112.694 5064641.080 -7984150.155 10 0 60915 21600.00000 0 24515800.890 5146677.919 -4881052.720 10 0 60915 22500.00000 0 24957066.781 5068547.396 -1683275.528 10 0 60915 23400.00000 0 25003606.090 4881726.780 1547151.164 10 0 60915 24300.00000 0 24644102.431 4641675.590 4747573.049 10 0 60915 25200.00000 0 23880750.269 4405255.350 7855923.468 10 0 60915 26100.00000 0 22729231.664 4228095.644 10811923.175 10 0 60915 27000.00000 0 21218147.637 4162017.800 13558245.105 10 0 60915 27900.00000 0 19387927.634 4252625.107 16041621.808 10 0 60915 28800.00000 0 17289262.243 4537161.347 18213874.390 10 0 60915 29700.00000 0 14981124.071 5042728.193 20032843.459 10 0 60915 30600.00000 0 12528458.582 5784937.020 21463204.467 10 0 60915 31500.00000 0 9999640.356 6767052.541 22477152.087 10 0 60915 32400.00000 0 7463799.785 7979665.226 23054940.709 10 0 60915 33300.00000 0 4988130.486 9400907.552 23185270.787 10 0 60915 34200.00000 0 2635288.549 10997206.434 22865513.503 10 0 60915 35100.00000 0 460990.943 12724541.964 22101769.158 10 0 60915 36000.00000 0 -1488087.784 14530161.395 20908757.592 10 0 60915 36900.00000 0 -3176033.497 16354678.124 19309542.026 10 0 60915 37800.00000 0 -4578954.092 18134469.130 17335090.777 10 0 60915 38700.00000 0 -5685732.469 19804271.445 15023684.357 10 0 60915 39600.00000 0 -6498239.746 21299869.378 12420178.573 10 0 60915 40500.00000 0 -7031000.114 22560759.932 9575137.167 10 0 60915 41400.00000 0 -7310321.944 23532684.233 6543850.373 10 0 60915 42300.00000 0 -7372932.197 24169917.911 3385258.302 10 0 60915 43200.00000 0 -7264172.532 24437223.260 160800.316 10 0 60915 44100.00000 0 -7035834.183 24311379.961 -3066786.721 10 0 60915 45000.00000 0 -6743724.260 23782228.952 -6234697.052 10 0 60915 45900.00000 0 -6445067.711 22853184.594 -9281286.644 10 0 60915 46800.00000 0 -6195856.194 21541192.946 -12147280.785 10 0 60915 47700.00000 0 -6048257.419 19876137.493 -14776934.203 10 0 60915 48600.00000 0 -6048195.744 17899717.227 -17119120.325 10 0 60915 49500.00000 0 -6233207.382 15663844.228 -19128328.026 10 0 60915 50400.00000 0 -6630661.623 13228628.241 -20765546.240 10 0 60915 51300.00000 0 -7256423.738 10660032.843 -21999019.385 10 0 60915 52200.00000 0 -8114016.267 8027301.407 -22804859.362 10 0 60915 53100.00000 0 -9194314.214 5400260.351 -23167502.837 10 0 60915 54000.00000 0 -10475787.042 2846611.870 -23080005.688 10 0 60915 54900.00000 0 -11925277.372 429328.372 -22544169.716 10 0 60915 55800.00000 0 -13499283.746 -1795743.767 -21570499.819 10 0 60915 56700.00000 0 -15145693.813 -3781972.561 -20177993.112 10 0 60915 57600.00000 0 -16805895.500 -5493635.449 -18393764.437 10 0 60915 58500.00000 0 -18417177.980 -6907151.968 -16252515.797 10 0 60915 59400.00000 0 -19915322.185 -8011804.505 -13795860.054 10 0 60915 60300.00000 0 -21237272.708 -8809918.807 -11071511.948 10 0 60915 61200.00000 0 -22323779.441 -9316498.469 -8132361.999 10 0 60915 62100.00000 0 -23121898.553 -9558330.348 -5035451.122 10 0 60915 63000.00000 0 -23587248.171 -9572599.903 -1840865.623 10 0 60915 63900.00000 0 -23685924.314 -9405075.817 1389426.018 10 0 60915 64800.00000 0 -23395996.788 -9107941.310 4592772.177 10 0 60915 65700.00000 0 -22708522.244 -8737364.135 7707049.732 10 0 60915 66600.00000 0 -21628031.703 -8350908.185 10671864.940 10 0 60915 67500.00000 0 -20172471.866 -8004896.114 13429720.396 10 0 60915 68400.00000 0 -18372602.103 -7751834.325 15927125.751 10 0 60915 69300.00000 0 -16270871.799 -7638008.930 18115630.912 10 0 60915 70200.00000 0 -13919824.116 -7701354.114 19952762.180 10 0 60915 71100.00000 0 -11380091.892 -7969682.782 21402843.599 10 0 60915 72000.00000 0 -8718068.155 -8459354.355 22437688.046 10 0 60915 72900.00000 0 -6003347.157 -9174436.266 23037145.047 10 0 60915 73800.00000 0 -3306041.181 -10106395.250 23189494.877 10 0 60915 74700.00000 0 -694083.645 -11234332.469 22891681.317 10 0 60915 75600.00000 0 1769370.490 -12525753.911 22149378.291 10 0 60915 76500.00000 0 4028339.792 -13937845.175 20976888.561 10 0 60915 77400.00000 0 6036108.041 -15419198.564 19396875.701 10 0 60915 78300.00000 0 7756925.983 -16911921.376 17439933.637 10 0 60915 79200.00000 0 9167252.685 -18354037.930 15144001.123 10 0 60915 80100.00000 0 10256484.952 -19682085.180 12553631.621 10 0 60915 81000.00000 0 11027144.648 -20833793.126 9719131.965 10 0 60915 81900.00000 0 11494516.443 -21750737.148 6695586.069 10 0 60915 82800.00000 0 11685751.691 -22380850.071 3541782.475 10 0 60915 83700.00000 0 11638476.838 -22680687.293 319066.793 10 0 60915 84600.00000 0 11398965.875 -22617348.432 -2909858.148 10 0 60915 85500.00000 0 11019955.063 -22169973.314 -6082160.231 10 0 60916 0.00000 0 10558193.523 -21330748.226 -9136108.963 10 0 60916 900.00000 0 10071834.290 -20105378.524 -12012285.930 10 0 60916 1800.00000 0 9617778.141 -18513008.191 -14654746.223 10 0 60916 2700.00000 0 9249082.870 -16585587.708 -17012112.850 10 0 60916 3600.00000 0 9012549.175 -14366717.619 -19038578.231 10 0 60916 4500.00000 0 8946585.677 -11910015.849 -20694794.716 10 0 60916 5400.00000 0 9079443.703 -9277077.263 -21948636.670 10 0 60916 6300.00000 0 9427896.542 -6535110.801 -22775819.731 10 0 60916 7200.00000 0 9996418.768 -3754352.807 -23160365.812 10 0 60916 8100.00000 0 10776900.050 -1005364.165 -23094905.613 10 0 60916 9000.00000 0 11748905.222 1643676.735 -22580813.529 10 0 60916 9900.00000 0 12880469.461 4129573.249 -21628173.068 10 0 60916 10800.00000 0 14129394.968 6396494.889 -20255574.057 10 0 60916 11700.00000 0 15444994.655 8398049.007 -18489745.954 10 0 60916 12600.00000 0 16770209.636 10098954.993 -16365034.661 10 0 60916 13500.00000 0 18044011.796 11476252.911 -13922733.038 10 0 60916 14400.00000 0 19203990.745 12519997.907 -11210278.038 10 0 60916 15300.00000 0 20189016.788 13233413.066 -8280329.956 10 0 60916 16200.00000 0 20941868.286 13632496.022 -5189751.455 10 0 60916 17100.00000 0 21411713.214 13745097.296 -1998506.023 10 0 60916 18000.00000 0 21556340.779 13609510.374 1231502.857 10 0 60916 18900.00000 0 21344049.315 13272633.853 4437629.454 10 0 60916 19800.00000 0 20755111.058 12787783.803 7557697.289 10 0 60916 20700.00000 0 19782751.987 12212249.039 10531201.024 10 0 60916 21600.00000 0 18433605.226 11604692.603 13300475.560 10 0 60916 22500.00000 0 16727618.336 11022509.090 15811809.978 10 0 60916 23400.00000 0 14697417.640 10519249.149 18016484.997 10 0 60916 24300.00000 0 12387155.164 10142219.525 19871714.278 10 0 60916 25200.00000 0 9850885.255 9930359.636 21341471.788 10 0 60916 26100.00000 0 7150537.310 9912484.024 22397189.592 10 0 60916 27000.00000 0 4353567.771 10105964.757 23018312.954 10 0 60916 27900.00000 0 1530387.665 10515909.565 23192702.182 10 0 60916 28800.00000 0 -1248328.596 11134870.867 22916873.433 10 0 60916 29700.00000 0 -3914342.588 11943098.782 22196073.570 10 0 60916 30600.00000 0 -6404448.277 12909328.558 21044187.108 10 0 60916 31500.00000 0 -8662858.361 13992070.503 19483476.329 10 0 60916 32400.00000 0 -10643281.934 15141349.367 17544158.686 10 0 60916 33300.00000 0 -12310607.389 16300821.072 15263828.727 10 0 60916 34200.00000 0 -13642120.645 17410178.479 12686734.825 10 0 60916 35100.00000 0 -14628208.030 18407745.361 9862923.982 10 0 60916 36000.00000 0 -15272514.648 19233149.257 6847270.773 10 0 60916 36900.00000 0 -15591551.874 19829960.134 3698409.135 10 0 60916 37800.00000 0 -15613770.999 20148182.721 477587.937 10 0 60916 38700.00000 0 -15378142.699 20146496.295 -2752526.930 10 0 60916 39600.00000 0 -14932303.119 19794146.106 -5929079.767 10 0 60916 40500.00000 0 -14330345.951 19072405.349 -8990256.759 10 0 60916 41400.00000 0 -13630354.966 17975544.799 -11876497.091 10 0 60916 42300.00000 0 -12891782.541 16511268.225 -14531658.914 10 0 60916 43200.00000 0 -12172786.152 14700594.431 -16904116.655 10 0 60916 44100.00000 0 -11527636.363 12577190.329 -18947767.796 10 0 60916 45000.00000 0 -11004306.519 10186182.685 -20622929.288 10 0 60916 45900.00000 0 -10642346.319 7582498.132 -21897106.289 10 0 60916 46800.00000 0 -10471129.017 4828800.734 -22745618.691 10 0 60916 47700.00000 0 -10508545.983 1993113.094 -23152073.859 10 0 60916 48600.00000 0 -10760203.146 -853780.056 -23108677.183 10 0 60916 49500.00000 0 -11219152.613 -3641038.124 -22616375.194 10 0 60916 50400.00000 0 -11866170.147 -6300468.786 -21684829.203 10 0 60916 51300.00000 0 -12670566.270 -8769118.426 -20332220.582 10 0 60916 52200.00000 0 -13591496.462 -10991642.294 -18584891.907 10 0 60916 53100.00000 0 -14579715.034 -12922357.066 -16476831.173 10 0 60916 54000.00000 0 -15579698.792 -14526891.864 -14049009.169 10 0 60916 54900.00000 0 -16532051.159 -15783370.473 -11348582.817 10 0 60916 55800.00000 0 -17376085.673 -16683077.035 -8427979.792 10 0 60916 56700.00000 0 -18052480.288 -17230578.949 -5343882.052 10 0 60916 57600.00000 0 -18505890.900 -17443303.323 -2156127.775 10 0 60916 58500.00000 0 -18687414.127 -17350586.041 1073447.068 10 0 60916 59400.00000 0 -18556795.722 -16992234.486 4282205.151 10 0 60916 60300.00000 0 -18084291.522 -16416665.220 7407919.167 10 0 60916 61200.00000 0 -17252102.401 -15678695.563 10389974.683 10 0 60916 62100.00000 0 -16055322.451 -14837082.424 13170541.353 10 0 60916 63000.00000 0 -14502359.921 -13951912.093 15695690.034 10 0 60916 63900.00000 0 -12614812.417 -13081950.844 17916434.424 10 0 60916 64800.00000 0 -10426800.514 -12282067.640 19789677.471 10 0 60916 65700.00000 0 -7983786.361 -11600837.072 21279044.678 10 0 60916 66600.00000 0 -5340925.222 -11078423.085 22355588.558 10 0 60916 67500.00000 0 -2561017.147 -10744832.239 22998350.999 10 0 60916 68400.00000 0 287857.552 -10618609.869 23194772.837 10 0 60916 69300.00000 0 3134922.119 -10706034.084 22940942.724 10 0 60916 70200.00000 0 5909400.520 -11000841.880 22241680.231 10 0 60916 71100.00000 0 8543217.101 -11484499.472 21110451.072 10 0 60916 72000.00000 0 10973587.493 -12127006.274 19569115.356 10 0 60916 72900.00000 0 13145393.743 -12888199.585 17647512.879 10 0 60916 73800.00000 0 15013245.290 -13719505.893 15382892.469 10 0 60916 74700.00000 0 16543140.086 -14566065.739 12819195.560 10 0 60916 75600.00000 0 17713656.642 -15369142.972 10006207.118 10 0 60916 76500.00000 0 18516627.211 -16068716.869 6998589.828 10 0 60916 77400.00000 0 18957263.972 -16606147.341 3854820.164 10 0 60916 78300.00000 0 19053733.200 -16926800.004 636047.150 10 0 60916 79200.00000 0 18836195.757 -16982519.142 -2595103.504 10 0 60916 80100.00000 0 18345354.987 -16733842.831 -5775755.803 10 0 60916 81000.00000 0 17630574.157 -16151865.269 -8844015.557 10 0 60916 81900.00000 0 16747643.929 -15219666.300 -11740183.154 10 0 60916 82800.00000 0 15756295.274 -13933246.577 -14407922.355 10 0 60916 83700.00000 0 14717563.980 -12301927.885 -16795361.558 10 0 60916 84600.00000 0 13691118.975 -10348200.932 -18856105.538 10 0 60916 85500.00000 0 12732667.978 -8107026.383 -20550137.724 10 0 60917 0.00000 0 11891550.369 -5624618.271 -21844595.451 10 0 60917 900.00000 0 11208618.387 -2956758.975 -22714404.156 10 0 60917 1800.00000 0 10714496.695 -166719.331 -23142757.126 10 0 60917 2700.00000 0 10428291.493 2677134.129 -23121434.593 10 0 60917 3600.00000 0 10356803.844 5503942.254 -22650954.925 10 0 60917 4500.00000 0 10494278.874 8243060.191 -21740556.504 10 0 60917 5400.00000 0 10822700.553 10826756.054 -20408011.126 10 0 60917 6300.00000 0 11312618.767 13192790.146 -18679272.986 10 0 60917 7200.00000 0 11924473.164 15286768.468 -16587970.321 10 0 60917 8100.00000 0 12610357.533 17064173.881 -14174749.674 10 0 60917 9000.00000 0 13316150.051 18491991.649 -11486485.428 10 0 60917 9900.00000 0 13983919.510 19549862.964 -8575369.862 10 0 60917 10800.00000 0 14554506.052 20230719.679 -5497901.192 10 0 60917 11700.00000 0 14970167.654 20540875.064 -2313789.069 10 0 60917 12600.00000 0 15177180.810 20499568.017 915201.356 10 0 60917 13500.00000 0 15128285.771 20137980.909 4126444.478 10 0 60917 14400.00000 0 14784873.167 19497773.202 7257665.349 10 0 60917 15300.00000 0 14118819.666 18629193.075 10248143.442 10 0 60917 16200.00000 0 13113894.979 17588846.854 13039885.891 10 0 60917 17100.00000 0 11766680.409 16437220.160 15578747.736 10 0 60917 18000.00000 0 10086959.542 15236054.961 17815477.716 10 0 60917 18900.00000 0 8097563.584 14045692.502 19706669.779 10 0 60917 19800.00000 0 5833676.510 12922493.365 21215602.320 10 0 60917 20700.00000 0 3341627.588 11916442.571 22312949.289 10 0 60917 21600.00000 0 677220.023 11069039.819 22977349.799 10 0 60917 22500.00000 0 -2096336.369 10411563.023 23195825.408 10 0 60917 23400.00000 0 -4910804.024 9963777.819 22964037.019 10 0 60917 24300.00000 0 -7695510.749 9733147.156 22286376.192 10 0 60917 25200.00000 0 -10380050.641 9714574.323 21175888.631 10 0 60917 26100.00000 0 -12896981.671 9890690.552 19654030.586 10 0 60917 27000.00000 0 -15184408.566 10232675.608 17750262.031 10 0 60917 27900.00000 0 -17188344.006 10701577.367 15501483.517 10 0 60917 28800.00000 0 -18864749.957 11250075.258 12951326.663 10 0 60917 29700.00000 0 -20181173.955 11824613.566 10149311.311 10 0 60917 30600.00000 0 -21117911.844 12367814.585 7149885.065 10 0 60917 31500.00000 0 -21668648.122 12821069.419 4011363.741 10 0 60917 32400.00000 0 -21840547.009 13127196.285 794793.395 10 0 60917 33300.00000 0 -21653790.504 13233052.948 -2437243.449 10 0 60917 34200.00000 0 -21140583.294 13091991.561 -5621853.342 10 0 60917 35100.00000 0 -20343666.978 12666050.701 -8697064.391 10 0 60917 36000.00000 0 -19314407.156 11927790.513 -11603040.637 10 0 60917 36900.00000 0 -18110534.989 10861692.060 -14283253.661 10 0 60917 37800.00000 0 -16793639.575 9465060.604 -16685587.734 10 0 60917 38700.00000 0 -15426517.809 7748393.718 -18763356.488 10 0 60917 39600.00000 0 -14070494.225 5735197.931 -20476211.002 10 0 60917 40500.00000 0 -12782824.172 3461260.962 -21790921.758 10 0 60917 41400.00000 0 -11614289.733 973409.544 -22682019.626 10 0 60917 42300.00000 0 -10607089.241 -1672195.563 -23132284.046 10 0 60917 43200.00000 0 -9793108.475 -4412156.569 -23133069.660 10 0 60917 44100.00000 0 -9192645.210 -7178240.654 -22684465.875 10 0 60917 45000.00000 0 -8813639.551 -9899987.404 -21795287.003 10 0 60917 45900.00000 0 -8651441.129 -12507413.819 -20482893.797 10 0 60917 46800.00000 0 -8689121.647 -14933705.159 -18772850.318 10 0 60917 47700.00000 0 -8898318.508 -17117780.560 -16698423.055 10 0 60917 48600.00000 0 -9240573.018 -19006627.681 -14299932.129 10 0 60917 49500.00000 0 -9669106.066 -20557310.264 -11623967.098 10 0 60917 50400.00000 0 -10130955.911 -21738566.056 -8722482.498 10 0 60917 51300.00000 0 -10569387.592 -22531929.572 -5651790.462 10 0 60917 52200.00000 0 -10926472.141 -22932333.933 -2471469.796 10 0 60917 53100.00000 0 -11145726.637 -22948167.639 756787.437 10 0 60917 54000.00000 0 -11174703.620 -22600784.874 3970369.578 10 0 60917 54900.00000 0 -10967420.507 -21923490.669 7106956.244 10 0 60917 55800.00000 0 -10486526.318 -20960044.116 10105722.983 10 0 60917 56700.00000 0 -9705114.077 -19762742.875 12908516.546 10 0 60917 57600.00000 0 -8608102.014 -18390169.542 15460978.216 10 0 60917 58500.00000 0 -7193124.748 -16904694.451 17713593.720 10 0 60917 59400.00000 0 -5470896.008 -15369839.432 19622649.777 10 0 60917 60300.00000 0 -3465026.430 -13847612.662 21151079.208 10 0 60917 61200.00000 0 -1211302.567 -12395925.819 22269178.663 10 0 60917 62100.00000 0 1243544.421 -11066201.179 22955185.441 10 0 60917 63000.00000 0 3843530.828 -9901268.270 23195702.463 10 0 60917 63900.00000 0 6525504.495 -8933637.745 22985963.204 10 0 60917 64800.00000 0 9221535.896 -8184224.378 22329931.232 10 0 60917 65700.00000 0 11861518.323 -7661572.496 21240231.958 10 0 60917 66600.00000 0 14375870.243 -7361616.331 19737917.194 10 0 60917 67500.00000 0 16698228.366 -7267985.421 17852066.234 10 0 60917 68400.00000 0 18768019.883 -7352842.464 15619230.161 10 0 60917 69300.00000 0 20532806.901 -7578218.539 13082729.268 10 0 60917 70200.00000 0 21950305.174 -7897789.578 10291816.376 10 0 60917 71100.00000 0 22989992.510 -8259019.063 7300721.753 10 0 60917 72000.00000 0 23634239.140 -8605576.138 4167597.918 10 0 60917 72900.00000 0 23878912.337 -8879926.287 953385.006 10 0 60917 73800.00000 0 23733429.689 -9025984.078 -2279380.835 10 0 60917 74700.00000 0 23220258.791 -8991714.513 -5467792.023 10 0 60917 75600.00000 0 22373884.737 -8731571.556 -8549802.280 10 0 60917 76500.00000 0 21239289.377 -8208669.192 -11465442.520 10 0 60917 77400.00000 0 19870007.233 -7396591.804 -14157995.140 10 0 60917 78300.00000 0 18325840.800 -6280766.075 -16575103.022 10 0 60917 79200.00000 0 16670332.364 -4859335.348 -18669791.073 10 0 60917 80100.00000 0 14968099.525 -3143498.688 -20401380.107 10 0 60917 81000.00000 0 13282147.016 -1157299.610 -21736275.372 10 0 60917 81900.00000 0 11671267.989 1063127.293 -22648614.759 10 0 60917 82800.00000 0 10187643.725 3470820.688 -23120764.666 10 0 60917 83700.00000 0 8874741.891 6009715.403 -23143654.671 10 0 60917 84600.00000 0 7765600.543 8616752.374 -22716945.305 10 0 60917 85500.00000 0 6881568.588 11224288.106 -21849026.451 99